Kenai, AK

10:47 AM AKST on February 19, 2018 (GMT -0900)
Kenai Municipal

Weather History for PAEN - November, 2014

Change the Weather History Date:

Saturday, November 1, 2014

  Actual Average Record
Temperature  
Mean Temperature 34 °F -  
Max Temperature 37 °F 34 °F 48 °F (1951)
Min Temperature 30 °F 21 °F -6 °F (1956)
Degree Days  
Heating Degree Days 30    
Moisture  
Dew Point 27 °F    
Average Humidity 76    
Maximum Humidity 100    
Minimum Humidity 56    
Precipitation  
Precipitation 0.00 in - - ()
Sea Level Pressure  
Sea Level Pressure 29.05 in    
Wind  
Wind Speed 14 mph (NNE)    
Max Wind Speed 25 mph    
Max Gust Speed 29 mph    
Visibility 9 miles    
Events Snow    
Averages and records for this station are not official NWS values.
T = Trace of Precipitation, MM = Missing Value Source: NWS Daily Summary

Daily Weather History Graph

Daily Weather History Graph

Search for Another Location

Airport or City:

Trip Planner

Search our weather history database for the weather conditions in past years. The results will help you decide how hot, cold, wet, or windy it might be!

Date:

Astronomy

Nov. 01, 2014 Rise Set
Actual Time 9:30 AM AKDT 6:05 PM AKDT
Civil Twilight 8:44 AM AKDT 6:51 PM AKDT
Nautical Twilight 7:53 AM AKDT 7:42 PM AKDT
Astronomical Twilight 7:04 AM AKDT 8:31 PM AKDT
Moon 4:28 PM AKDT (11/1) 2:05 AM AKDT (11/1)
Length of Visible Light 10h 07m
Length of Day
8h 35m
Waxing Gibbous, 69% of the Moon is Illuminated
Nov 1
Waxing Gibbous
Nov 6
Full
Nov 14
Last Quarter
Nov 22
New
Nov 29
First Quarter

Hourly Weather History & Observations

Time (AKDT) Temp. Windchill Dew Point Humidity Pressure Visibility Wind Dir Wind Speed Gust Speed Precip Events Conditions
12:53 AM 32.0 °F 22.1 °F 23.0 °F 69% 29.19 in 10.0 mi NNE 13.8 mph - N/A   Overcast
1:53 AM 33.1 °F 22.6 °F 21.9 °F 64% 29.18 in 10.0 mi NNE 16.1 mph - N/A   Overcast
6:53 AM 33.8 °F 23.5 °F 26.6 °F 75% 29.09 in 10.0 mi North 16.1 mph 23.0 mph N/A   Clear
7:53 AM 33.8 °F 22.5 °F 24.8 °F 70% 29.07 in 10.0 mi North 19.6 mph 28.8 mph N/A   Clear
8:53 AM 32.0 °F 21.6 °F 23.0 °F 69% 29.07 in 10.0 mi NNE 15.0 mph - N/A   Mostly Cloudy
9:53 AM 32.0 °F 22.1 °F 24.8 °F 75% 29.05 in 10.0 mi North 13.8 mph - N/A   Clear
10:53 AM 33.8 °F 23.9 °F 24.8 °F 70% 29.03 in 10.0 mi North 15.0 mph - N/A   Clear
11:53 AM 35.1 °F 24.5 °F 23.0 °F 61% 29.01 in 10.0 mi North 18.4 mph 25.3 mph N/A   Clear
12:53 PM 37.4 °F 28.2 °F 24.8 °F 60% 29.00 in 10.0 mi North 16.1 mph 24.2 mph N/A   Clear
1:53 PM 37.0 °F 28.9 °F 23.0 °F 57% 29.01 in - NNE 12.7 mph - N/A   Unknown
2:53 PM 37.4 °F 28.2 °F 24.8 °F 60% 29.00 in - NNE 16.1 mph 24.2 mph N/A   Overcast
3:53 PM 37.4 °F 30.8 °F 24.8 °F 60% 29.00 in 10.0 mi NE 9.2 mph - N/A   Overcast
4:53 PM 37.4 °F 25.9 °F 23.0 °F 56% 29.01 in 2.0 mi NNE 25.3 mph - N/A Snow Light Snow
5:53 PM 33.8 °F 25.3 °F 32.0 °F 93% 29.02 in 2.0 mi NNE 11.5 mph - N/A Snow Light Snow
6:08 PM 32.0 °F 22.5 °F 32.0 °F 100% 29.02 in 5.0 mi NNE 12.7 mph - N/A   Overcast
6:26 PM 32.0 °F 23.6 °F 32.0 °F 100% - 10.0 mi NNE 10.4 mph - N/A   Mostly Cloudy
6:53 PM 32.0 °F 24.2 °F 32.0 °F 100% 29.03 in 10.0 mi NNE 9.2 mph - N/A   Overcast
7:53 PM 32.0 °F 27.5 °F 30.2 °F 93% 29.05 in 7.0 mi North 4.6 mph - N/A   Mostly Cloudy
8:19 PM 32.0 °F 28.7 °F 30.2 °F 93% 29.05 in 10.0 mi NNE 3.5 mph - N/A   Overcast
8:53 PM 30.2 °F - 30.2 °F 100% 29.06 in 10.0 mi Calm Calm - N/A   Scattered Clouds